Simultaneous Nadir Overpasses (SNOs) Predictions

Prediction of SNOs between GOES-14 and NOAA-20 Satellite Orbit:

Table of predicted SNOs for the next 14.0 days since TLE Epoch: 6/8/2024
Index Date Time (GOES-14) GOES-14 Lat,Lon NOAA-20 Lat,Lon Distance(km) Time Diff (sec)
1 06/08/2024 08:33:16 0.02,-108.58 -0.34,-106.83 198.34 80
2 06/09/2024 20:52:29 0.01,-108.56 -0.77,-112.14 407.63 80
3 06/10/2024 20:36:21 -0.01,-108.56 0.24,-107.60 110.12 80
4 06/12/2024 08:55:26 -0.03,-108.57 0.91,-112.86 488.39 80
5 06/13/2024 08:37:54 -0.01,-108.57 -0.04,-108.31 29.22 3
6 06/15/2024 20:39:42 0.02,-108.54 -0.11,-109.06 59.26 80
7 06/16/2024 20:23:35 0.01,-108.54 0.91,-104.52 458.63 80
8 06/18/2024 08:42:39 -0.05,-108.56 0.23,-109.79 139.56 80
9 06/19/2024 08:26:32 -0.03,-108.55 -0.79,-105.25 377.61 80
10 06/20/2024 20:45:44 0.07,-108.52 -0.35,-110.54 229.95 80
11 06/21/2024 20:29:35 0.05,-108.51 0.61,-105.99 287.42 80
